Location: Calmejanne
(44.7523°N, 1.9418°E)
Time: 15:12:20
(UTC+00:00)

USA 234 - Pass Details

Date: 14 May 2026
Orbit: 1102 x 1106 km, 123.0° (Epoch: 4 January)

Event Time Altitude Azimuth Distance (km) Brightness Sun altitude
Rises 23:23:56 0° 51° (NE) 3,925 6.6 -26.2°
Reaches altitude 10° 23:26:25 10° 53° (NE) 2,965 5.9 -26.2°
Maximum altitude 23:32:59 75° 138° (SE) 1,140 3.1 -26.3°
Enters shadow 23:34:29 55° 206° (SSW) 1,303 3.3 -26.3°
